Home   Weather   Haan   Past weeks

Flag for Germany Past Weather in Haan, North Rhine-Westphalia, Germany — Yesterday and Last 2 Weeks

Now
64 °F

Clear.


Feels Like: 64 °F
Forecast: 51 / 66 °F
Wind: 17 mph from Northwest

Location: Duesseldorf

Current Time: Sep 25, 2016 at 9:12:56 PM

Latest Report: Sep 25, 2016 at 8:20 PM


Visibility: 10 mi

Pressure: 30.09 "Hg

Humidity: 78%

Dew Point: 57 °F

Location of HaanLocation

Past Weather in Haan — Graph

°F

Haan Temperature Yesterday

Maximum temperature yesterday: 75 °F (at 2:50 PM)
Minimum temperature yesterday: 48 °F (at 2:50 AM)
Average temperature yesterday: 63 °F

High & Low Weather Summary for the Past Weeks

 TemperatureHumidityPressure
High90 °F (Sep 13, 2:20 PM)100% (Sep 12, 2:50 AM)30.30 "Hg (Sep 12, 2:50 AM)
Low46 °F (Sep 22, 3:20 AM)27% (Sep 14, 3:50 PM)29.77 "Hg (Sep 15, 4:20 PM)
Average66 °F69%30.04 "Hg
* Reported Sep 10 7:20 PM — Sep 25 7:50 PM, Haan, Weather by CustomWeather, © 2016

Note: Actual official high and low records may vary slightly from our data, if they occured in-between our weather recording intervals... More about our weather records

Advertising

Haan Weather History for the Previous 24 Hours

Scroll right to see more
 ConditionsComfort  
Time TempWeatherWind HumidityBarometerVisibility
7:50 PM
Sun, Sep 25
68 °FClear.22 mph69%30.07 "Hg10 mi
7:20 PM72 °FScattered clouds.21 mph61%30.04 "HgN/A
6:50 PM75 °FSunny.15 mph50%30.04 "Hg10 mi
6:20 PM77 °FSunny.14 mph44%30.01 "Hg10 mi
5:50 PM79 °FSunny.12 mph37%30.01 "Hg10 mi
5:20 PM81 °FSunny.14 mph32%30.01 "Hg10 mi
4:50 PM81 °FSunny.15 mph28%30.01 "Hg10 mi
4:20 PM81 °FSunny.15 mph30%29.98 "Hg10 mi
3:50 PM81 °FSunny.15 mph32%29.98 "Hg10 mi
3:20 PM81 °FPassing clouds.13 mph37%29.98 "HgN/A
2:50 PM79 °FPassing clouds.10 mph39%29.98 "HgN/A
2:20 PM79 °FSunny.13 mph42%29.98 "Hg10 mi
1:50 PM75 °FPassing clouds.14 mph47%30.01 "HgN/A
1:20 PM75 °FPassing clouds.15 mph44%30.01 "HgN/A
12:50 PM73 °FSunny.15 mph47%30.01 "Hg10 mi
12:20 PM73 °FPassing clouds.14 mph47%30.01 "HgN/A
11:50 AM72 °FSunny.16 mph50%30.01 "Hg10 mi
11:20 AM70 °FPassing clouds.15 mph53%30.01 "HgN/A
10:50 AM68 °FSunny.15 mph56%30.04 "Hg10 mi
10:20 AM66 °FSunny.16 mph56%30.04 "Hg10 mi
9:50 AM64 °FSunny.17 mph60%30.04 "Hg10 mi
9:20 AM61 °FSunny.17 mph68%30.04 "Hg10 mi
8:50 AM59 °FSunny.14 mph72%30.04 "Hg10 mi
8:20 AM57 °FSunny.12 mph72%30.04 "Hg10 mi
7:50 AM57 °FSunny.13 mph72%30.04 "Hg10 mi
7:20 AM57 °FClear.12 mph72%30.04 "Hg10 mi
6:50 AM57 °FClear.12 mph72%30.04 "Hg10 mi
6:20 AM57 °FClear.12 mph72%30.07 "Hg10 mi
5:50 AM57 °FClear.12 mph72%30.07 "Hg10 mi
5:20 AM57 °FClear.13 mph72%30.07 "Hg10 mi
4:50 AM59 °FClear.12 mph68%30.07 "Hg10 mi
4:20 AM59 °FClear.12 mph68%30.07 "Hg10 mi
3:50 AM59 °FClear.10 mph68%30.07 "Hg10 mi
3:20 AM59 °FClear.9 mph72%30.09 "Hg10 mi
2:50 AM59 °FClear.9 mph72%30.09 "Hg10 mi
2:20 AM59 °FClear.8 mph72%30.09 "Hg10 mi
1:50 AM59 °FClear.7 mph68%30.09 "Hg10 mi
1:20 AM59 °FClear.7 mph68%30.09 "Hg10 mi
12:50 AM61 °FClear.8 mph63%30.12 "Hg10 mi
12:20 AM61 °FClear.7 mph63%30.12 "Hg10 mi
11:50 PM
Sat, Sep 24
63 °FClear.9 mph59%30.12 "Hg10 mi
11:20 PM64 °FClear.9 mph56%30.12 "Hg10 mi
10:50 PM64 °FClear.9 mph56%30.12 "Hg10 mi
10:20 PM64 °FClear.9 mph56%30.12 "Hg10 mi
9:50 PM66 °FClear.8 mph52%30.12 "Hg10 mi
9:20 PM68 °FClear.10 mph49%30.12 "Hg10 mi
Weather by CustomWeather, © 2016

See weather overviewHow to use our weather pages